Location: Peebles
(55.6412°N, 3.1714°W)
Time: 11:41:09
(UTC+01:00)

deb NNS O-4 - Pass Details

Date: 02 July 2022
Orbit: 977 x 1074 km, 89.9° (Epoch: 15 August)

Event Time Altitude Azimuth Distance (km) Brightness Sun altitude
Exits shadow 03:08:32 - 191° (SSW) 3,065 ? -7.8°
Reaches altitude 10° 03:08:58 10° 192° (SSW) 2,905 ? -7.8°
Maximum altitude 03:15:35 64° 274° (W) 1,180 ? -7.3°
Drops below altitude 10° 03:22:11 10° 355° (N) 2,887 ? -6.9°
Sets 03:24:46 0° 359° (N) 3,833 ? -6.7°
